Vereeniging Airport

Jump to: basic info | weather | frequencies | runways | comments

Related pages: nearby airports | nearby navaids | notams | map

Basic information (top)

Codes: FAVV
Location: lon -26.566401, lat 27.960800, elev 4,846 ft / 1,477 m msl
Status: medium_airport

Weather (top)

Current conditions (rec'd 2014/11/28 08:00Z):

FAVV 280800Z AUTO 21003G17KT //// // ////// 21/09 Q1019

Airport forecast for OR Tambo International Airport 30nm (55km) NNE (rec'd 2014/11/28 00:00Z):

TAF FAOR 272300Z 2800/2906 21006KT CAVOK PROB40 
      TEMPO 2800/2806 4000 BR BKN005 
      BECMG 2807/2809 29013KT 
      BECMG 2816/2818 18010KT 
      BECMG 2900/2902 09014KT SCT010 
      TEMPO 2902/2906 4000 BR BKN003 TX26/2813ZTN12/2803Z

Frequencies (top)

Verify before use: may be inaccurate or out of date.

CTAF: 122.1 MHz (CTAF)

Runways (top)

03/21: 5,266 x 72 ft (1,605 x 22 m) — paved — lighted — threshold 21 displaced 260 ft (79 m)

15/33: 3,724 x 52 ft (1,135 x 16 m) — paved — not lighted

Latest comments (top)

help: My son whom is in Grade 11 has a school ... [read]

Information: Good day this is Mpho, i just need to ... [read]

More... (top)

See also NOTAMs and nearby airports and navaids, or visit the Vereeniging Airport page at the main OurAirports website..